Location: La Bastide
(43.1661°N, 1.2755°E)
Time: 09:53:07
(UTC+00:00)

ISS - Pass Details

Date: 16 February 2026
Orbit: 416 x 426 km, 51.6° (Epoch: 10 March)

Event Time Altitude Azimuth Distance (km) Brightness Sun altitude
Exits shadow 05:23:35 44° 254° (WSW) 589 -3.5 -16.6°
Maximum altitude 05:24:31 75° 328° (NNW) 435 -3.9 -16.5°
Drops below altitude 10° 05:27:52 10° 55° (NE) 1,493 -0.2 -15.9°
Sets 05:29:58 0° 57° (ENE) 2,358 1.0 -15.5°
